Orbital Elements at Epoch 2459200.5 (2020-Dec-17.0) TDB
Reference: JPL 17 (heliocentric ecliptic J2000)
Element | Value | Uncertainty (1-sigma) | Units |
e | .1668950558636021 | 5.5915e-08 | |
a | 2.358792604807427 | 1.0541e-08 | au |
q | 1.96512178125744 | 1.322e-07 | au |
i | 3.871082112772153 | 6.4407e-06 | deg |
node | 189.6256962536571 | 7.7025e-05 | deg |
peri | 298.5777968649409 | 7.9139e-05 | deg |
M | 329.5379280781772 | 1.6837e-05 | deg |
tp | 2459312.466989562035 (2021-Apr-07.96698956) | 6.2139e-05 | TDB |
period | 1323.223067222037 3.62 | 8.8698e-06 2.428e-08 | d yr |
n | .2720629717828157 | 1.8237e-09 | deg/d |
Q | 2.752463428357413 | 1.23e-08 | au |
|
| | Orbit Determination Parameters
Additional Information
|